Tracking 19792 objects as of 15-Jul-2019
HD Live streaming from Space Station
objects crossing your sky now

ERS 15

Track ERS 15 now!
10-day predictions
ERS 15 is classified as:


NORAD ID: 2412
Int'l Code: 1966-077C
Perigee: 3,685.2 km
Apogee: 3,713.7 km
Inclination: 90.2 °
Period: 167.6 minutes
Semi major axis: 10070 km
RCS: 0.3509 m2 (medium)
Launch date: August 19, 1966
Source: United States (US)
Launch site: AIR FORCE WESTERN TEST RANGE (AFWTR)
aabbcc
Your satellite tracking list
Your tracking list is empty




NASA's NSSDC Master Catalog

Two Line Element Set (TLE):
1  2412U 66077C   19194.57925468 +.00000002 +00000-0 +00000-0 0  9997
2  2412 090.2300 250.6507 0014194 081.0465 279.1993 08.59071462173130
Source of the keplerian elements: AFSPC